Flag for Germany Weather past 2 weeks in Offenbach, Hesse, Germany

Now
39 °F

Partly cloudy.


Feels Like: 35 °F
Forecast: 33 / 51 °F
Wind: 6 mph from Northwest

Location: Frankfurt-M-Flughafen Airport

Current Time: Feb 28, 2015 at 2:14:44 AM

Latest Report: Feb 28, 2015 at 1:50 AM


Visibility: N/A

Pressure: 30.15 "Hg

Humidity: 75%

Dew point: 32 °F

Location of OffenbachLocation

Historic Weather in Offenbach — Graph

°F

Offenbach temperature yesterday

Maximum temperature yesterday: 41 °F (at 12:20 AM)
Minimum temperature yesterday: 37 °F (at 5:20 AM)
Average temperature yesterday: 40 °F

Past Weeks' High & Low Weather Summary

 TemperatureHumidityPressure
High52 °F (Feb 20, 1:50 PM)100% (Feb 22, 2:50 AM)30.74 "Hg (Feb 22, 2:50 AM)
Low25 °F (Feb 15, 4:50 AM)50% (Feb 20, 4:50 PM)29.45 "Hg (Feb 21, 7:20 AM)
Average38 °F81%30.02 "Hg
* Reported Feb 13 12:20 AM — Feb 28 12:50 AM, Offenbach, Weather by CustomWeather, © 2015

Note: Actual official high and low records may vary slightly from our data, if they occured in-between our weather recording intervals... More about our weather records

Advertising

Offenbach weather history for previous 24 hours

 ConditionsComfort  
Time TempWeatherWind HumidityBarometerVisibility
12:50 AM
Sat, Feb 28
39 °FClear.8 mph81%30.15 "Hg10 mi
12:20 AM39 °FClear.8 mph81%30.15 "Hg10 mi
11:50 PM
Fri, Feb 27
37 °FClear.6 mph87%30.15 "Hg10 mi
11:20 PM39 °FMostly cloudy.7 mph81%30.12 "HgN/A
10:50 PM41 °FLight rain. Mostly cloudy.8 mph76%30.12 "HgN/A
10:20 PM41 °FMostly cloudy.6 mph76%30.12 "HgN/A
9:50 PM39 °FMostly cloudy.6 mph87%30.12 "HgN/A
9:20 PM41 °FLight rain. Passing clouds.10 mph81%30.09 "HgN/A
8:50 PM39 °FLight rain. Passing clouds.9 mph87%30.09 "HgN/A
8:20 PM39 °FLight rain. Partly cloudy.9 mph93%30.09 "HgN/A
7:50 PM41 °FLight rain. Mostly cloudy.9 mph81%30.07 "HgN/A
7:20 PM41 °FLight rain. Passing clouds.9 mph81%30.07 "HgN/A
6:50 PM41 °FLight rain. Mostly cloudy.8 mph81%30.07 "HgN/A
6:20 PM41 °FLight rain. Passing clouds.2 mph81%30.04 "HgN/A
5:50 PM41 °FLight rain. Partly sunny.9 mph87%30.04 "HgN/A
5:20 PM41 °FLight rain. Partly sunny.9 mph81%30.01 "HgN/A
4:50 PM41 °FLight rain. Mostly cloudy.8 mph81%30.01 "HgN/A
4:20 PM41 °FLight rain. Partly sunny.12 mph87%29.98 "HgN/A
3:50 PM41 °FLight rain. Mostly cloudy.6 mph87%29.98 "HgN/A
3:20 PM41 °FLight rain. Broken clouds.3 mph87%29.95 "HgN/A
2:50 PM41 °FLight rain. Mostly cloudy.9 mph93%29.95 "HgN/A
2:20 PM41 °FLight rain. Broken clouds.3 mph93%29.92 "HgN/A
1:50 PM41 °FLight rain. Broken clouds.2 mph87%29.92 "HgN/A
1:20 PM41 °FLight rain. Broken clouds.No wind87%29.92 "HgN/A
12:50 PM39 °FLight rain. Mostly cloudy.1 mph93%29.89 "HgN/A
12:20 PM39 °FLight rain. Broken clouds.3 mph93%29.89 "HgN/A
11:50 AM39 °FLight rain. Broken clouds.3 mph87%29.89 "HgN/A
11:20 AM39 °FLight rain. Broken clouds.1 mph87%29.89 "HgN/A
10:50 AM39 °FLight rain. Broken clouds.1 mph87%29.86 "HgN/A
10:20 AM39 °FLight rain. Partly sunny.3 mph87%29.86 "HgN/A
9:50 AM39 °FLight rain. Partly sunny.2 mph81%29.86 "HgN/A
9:20 AM39 °FLight rain. Partly sunny.1 mph87%29.83 "HgN/A
8:50 AM39 °FLight rain. Mostly cloudy.2 mph93%29.83 "HgN/A
8:20 AM39 °FRain. Mostly cloudy.5 mph93%29.83 "HgN/A
7:50 AM39 °FLight rain. Mostly cloudy.5 mph93%29.80 "HgN/A
7:20 AM39 °FLight rain. Mostly cloudy.5 mph93%29.80 "HgN/A
6:50 AM39 °FLight rain. Mostly cloudy.No wind93%29.80 "HgN/A
6:20 AM39 °FLight rain. Overcast.1 mph87%29.80 "HgN/A
5:50 AM39 °FLight rain. Mostly cloudy.3 mph87%29.80 "HgN/A
5:20 AM37 °FLight rain. Mostly cloudy.5 mph93%29.80 "HgN/A
4:20 AM39 °FLight rain. Overcast.1 mph75%29.80 "HgN/A
3:50 AM39 °FLight rain. Mostly cloudy.2 mph75%29.80 "HgN/A
3:20 AM39 °FOvercast.No wind75%29.80 "HgN/A
2:50 AM39 °FOvercast.No wind75%29.80 "HgN/A
2:20 AM39 °FOvercast.No wind75%29.83 "HgN/A
Weather by CustomWeather, © 2015

See weather overviewHow to use our weather pages